Location: Prague
(50.0830°N, 14.4670°E)
Time: 10:30:47
(UTC+02:00)

RS-15 - Pass Details

Date: 04 April 2023
Orbit: 1885 x 2159 km, 64.8° (Epoch: 29 May)

Event Time Altitude Azimuth Distance (km) Brightness Sun altitude
Rises 22:23:40 0° 309° (NW) 5,673 11.9 -24.1°
Reaches altitude 10° 22:27:21 10° 314° (NW) 4,650 11.1 -24.5°
Maximum altitude 22:39:16 55° 31° (NNE) 2,402 8.5 -25.8°
Enters shadow 22:46:19 26° 97° (E) 3,337 8.8 -26.5°
